Weather in Bet'ki

Russia / Republic of Tatarstan     55°40′30″N   52°08′23″E
temp.,
°C
wind,
m/s
gust,
m/s
humid.,
%
clouds,
%
prec.,
mm/h
press.,
hPa
HPBL,
m
26 july, mon
mon2600:00+11sw11622 0.0 102110
03:00+10sw22665 0.0 102211
06:00+14sw235649 0.0 1022139
09:00+19wsw454266 0.0 1022746
12:00+21w4637100 0.0 10212336
15:00+22w564092 0.0 10202169
18:00+18wsw345689 0.0 102077
21:00+17wsw385787 0.0 1019197
27 july, tue
tue2700:00+15wsw396558 0.0 1018197
03:00+12sw4977100 0.0 1017162
06:00+17wsw5126242 0.0 1016420
09:00+21w585210 0.0 1016818
12:00+24wnw794324 0.0 10151990
15:00+23nw79341 0.0 10141981
18:00+21nw48472 0.0 1014618
21:00+17nw2257100 0.0 101444
28 july, wed
wed2800:00+13n22715 0.0 101511
03:00+11n11774 0.0 101510
06:00+14wnw23624 0.0 1015191
09:00+20nw46410 0.0 10151686
12:00+22nw56335 0.0 10142006
15:00+23nw56331 0.0 10132069
18:00+21nw36440 0.0 1013321
21:00+15wnw11570 0.0 101311
29 july, thu
thu2900:00+13ssw22590 0.0 101310
03:00+12sw33650 0.0 101333
06:00+16sw375843 0.0 1012199
09:00+23sw584458 0.0 1011796
12:00+25sw7942100 0.0 10091708
15:00+20w51174100 0.3 1008503
18:00+16sse31098100 6.6 1006453
21:00+17ssw3119299 14.6 1003444
30 july, fri
fri3000:00+16wsw229474 0.6 100252
03:00+16wsw3797100 0.6 1003216
06:00+17w489193 0.0 1004325
09:00+22wsw6876100 0.0 1004658
12:00+25w8116671 1.4 10041259
15:00+27wnw810475 1.8 10042083
18:00+24nw47600 0.0 1005308
21:00+19sw22720 0.0 100614